Home   Weather   Gänserndorf   Past weeks

Flag for Austria Past Weather in Gänserndorf, Lower Austria, Austria — Yesterday and Last 2 Weeks

Now
59 °F

Scattered clouds.


Feels Like: 59 °F
Forecast: 40 / 70 °F
Wind: 6 mph from Southeast

Location: Wien / Schwechat-Flughafen

Current Time: Apr 24, 2017 at 7:43:33 pm

Latest Report: Apr 24, 2017 at 7:00 pm


Visibility: 25 mi

Pressure: 29.93 "Hg

Humidity: 44%

Dew Point: 37 °F

Location of GänserndorfLocation

Past Weather in Gänserndorf — Graph

°F

Gänserndorf Temperature Yesterday

Maximum temperature yesterday: 51 °F (at 1:00 pm)
Minimum temperature yesterday: 41 °F (at 6:00 am)
Average temperature yesterday: 46 °F

High & Low Weather Summary for the Past Weeks

 TemperatureHumidityPressure
High70 °F (Apr 10, 5:00 pm)100% (Apr 19, 6:00 pm)30.50 "Hg (Apr 19, 6:00 pm)
Low32 °F (Apr 19, 6:00 pm)39% (Apr 10, 4:00 pm)29.81 "Hg (Apr 13, 7:00 am)
Average48 °F66%30.09 "Hg
* Reported Apr 9 6:00 pm — Apr 24 6:00 pm, Gänserndorf, Weather by CustomWeather, © 2017

Note: Actual official high and low records may vary slightly from our data, if they occured in-between our weather recording intervals... More about our weather records

Advertising

Gänserndorf Weather History for the Previous 24 Hours

Scroll right to see more
 ConditionsComfort  
Time TempWeatherWind HumidityBarometerVisibility
6:00 pm
Mon, Apr 24
60 °FPassing clouds.6 mph42%29.95 "Hg19 mi
5:00 pm59 °FPassing clouds.7 mph42%29.97 "Hg17 mi
4:00 pm58 °FPassing clouds.7 mph43%30.01 "Hg17 mi
3:00 pm56 °FPassing clouds.7 mph46%30.04 "Hg22 mi
2:00 pm55 °FPassing clouds.6 mph48%30.08 "Hg19 mi
1:00 pm53 °FPassing clouds.6 mph45%30.11 "Hg15 mi
12:00 pm51 °FPassing clouds.5 mph45%30.14 "Hg14 mi
11:00 am49 °FPassing clouds.N/A45%30.16 "Hg19 mi
10:00 am49 °FPassing clouds.N/A48%30.18 "Hg14 mi
9:00 am47 °FPassing clouds.N/A54%30.20 "Hg19 mi
8:00 am40 °FPassing clouds.N/A71%30.21 "Hg22 mi
7:00 am39 °FPassing clouds.N/A68%30.21 "Hg28 mi
6:00 am37 °FPassing clouds.3 mph71%30.21 "Hg31 mi
5:00 am36 °FPassing clouds.3 mph73%30.22 "Hg31 mi
4:00 am37 °FPassing clouds.5 mph72%30.22 "Hg31 mi
3:00 am39 °FPassing clouds.3 mph67%30.22 "Hg28 mi
2:00 am40 °FPassing clouds.5 mph65%30.22 "Hg28 mi
1:00 am42 °FPassing clouds.5 mph56%30.22 "Hg31 mi
12:00 am45 °FPassing clouds.5 mph49%30.22 "Hg25 mi
11:00 pm
Sun, Apr 23
47 °FOvercast.6 mph45%30.21 "Hg31 mi
10:00 pm47 °FOvercast.6 mph52%30.19 "Hg22 mi
9:00 pm46 °FOvercast.N/A67%30.17 "Hg31 mi
8:00 pm46 °FOvercast.N/A67%30.15 "Hg19 mi
7:00 pm47 °FOvercast.N/A62%30.14 "Hg28 mi
Weather by CustomWeather, © 2017

See weather overviewHow to use our weather pages